London Bikeathon 2013
Skip Navigation Links
Results
Previous Results
Details
15 September 2013
HyperLink
Enquiries to jim@dbmax.co.uk
Page 1 of 27 (1326 items)
[1]234567...24252627
Pos
Bib No
Fav
Share
Print
Name
Time
Category
Categ Points
Gender
Gen Pos
Club
Pace
1384Tony Collins5:35:07.6All AgesGoldMale1We Hate Hills & Wind17.9 m/hr
26803Phil Taplow5:36:24.3All AgesGoldMale2 17.8 m/hr
32395Jaco Lategan5:38:07.4All AgesGoldMale3 17.7 m/hr
41426Andy Stevenson5:47:11.2All AgesGoldMale4 17.3 m/hr
52035Kurt Wallin5:49:59.2All AgesGoldMale5 17.1 m/hr
64593Adam Cowie5:53:36.7All AgesGoldMale6 17.0 m/hr
72537Dean Wicks5:54:27.9All AgesGoldMale7 16.9 m/hr
82684Peter Davidson5:58:01.1All AgesGoldMale8 16.8 m/hr
9500Ben Bedding5:59:32.4All AgesGoldMale9 16.7 m/hr
105368Mark Sandy6:01:20.2All AgesSilverMale10 16.6 m/hr
114199Stuart Smith6:04:07.2All AgesSilverMale11 16.5 m/hr
121690Stephen Baillie6:04:41.7All AgesSilverMale12 16.5 m/hr
134144Sean Delaney6:08:10.8All AgesSilverMale13 16.3 m/hr
146928Tom Eames6:08:41.6All AgesSilverMale14 16.3 m/hr
153472Mat Baker6:10:22.2All AgesSilverMale15 16.2 m/hr
163009 6:11:22.5All Ages Unknown1 16.2 m/hr
174559Tony Whitehead6:12:21.2All AgesSilverMale16 16.1 m/hr
185578Steve Groombridge6:12:57.4All AgesSilverMale17 16.1 m/hr
196921Purdy Miller6:13:36.0All AgesGoldFemale1 16.1 m/hr
206845Frank Monton6:15:24.4All AgesSilverMale18 16.0 m/hr
216838Steven Bilnkett6:15:31.9All AgesSilverMale19 16.0 m/hr
22405Paul Lincoln6:15:35.9All AgesSilverMale20 16.0 m/hr
234025Euan Macdonald6:18:26.9All AgesSilverMale21 15.9 m/hr
24192Paul Squires6:18:42.9All AgesSilverMale22 15.8 m/hr
25675Gianpiero Gaglione6:18:46.1All AgesSilverMale23 15.8 m/hr
264068Grady Wing6:19:31.7All AgesSilverMale24 15.8 m/hr
274069Terry Wing6:19:33.2All AgesSilverMale25 15.8 m/hr
282961Josh Furniss6:20:45.6All AgesSilverMale26 15.8 m/hr
293199Phil Walter6:21:17.4All AgesSilverMale27 15.7 m/hr
305298Richard Whittey6:21:42.7All AgesSilverMale28 15.7 m/hr
311629Guy Wilkinson6:22:24.0All AgesSilverMale29 15.7 m/hr
322932Mark Speller6:22:41.1All AgesSilverMale30 15.7 m/hr
33390Daniel Layzell6:22:49.7All AgesSilverMale31 15.7 m/hr
342578Robert Hartley6:23:42.9All AgesSilverMale32 15.6 m/hr
35499Conrad Mcewan6:23:57.5All AgesSilverMale33 15.6 m/hr
365409Francis Louis6:24:07.1All AgesSilverMale34 15.6 m/hr
375283Paul Crossman6:25:33.0All AgesSilverMale35 15.6 m/hr
382888Tom Hargreaves6:27:01.7All AgesSilverMale36 15.5 m/hr
3953John Hayward6:27:34.6All AgesSilverMale37 15.5 m/hr
404333Tulio De Souza6:28:22.3All AgesSilverMale38 15.4 m/hr
414888Darryn Lapham6:28:23.4All AgesSilverMale39 15.4 m/hr
423035Gary Elliott6:29:21.1All AgesSilverMale40Elliott Wood Partnership15.4 m/hr
433739Paul Durrant6:29:40.7All AgesSilverMale41 15.4 m/hr
442950Thomas Herbert6:31:02.3All AgesSilverMale42 15.3 m/hr
455548Adrian Harvey6:31:14.3All AgesSilverMale43 15.3 m/hr
463081Wilhelm Van Rensburg6:32:36.5All AgesSilverMale44 15.3 m/hr
474943 6:33:25.9All Ages Unknown2 15.3 m/hr
484944 6:33:28.9All Ages Unknown3 15.2 m/hr
495534Ben Taylor6:34:07.6All AgesSilverMale45 15.2 m/hr
501408Steven Polatajko6:34:51.0All AgesSilverMale46 15.2 m/hr
Page 1 of 27 (1326 items)
[1]234567...24252627

HyperLink Copyright (c) G Vincent, 2017